#timestamp,LO_Frequency,Hit,StdDev 
1628337615.1,286047000.8,N
1628337616.0,286047000.8,N
1628337635.8,286046998.2,N
1628337655.7,286046998.4,N
1628337675.5,286047000.9,N
1628337695.3,286047000.4,N
1628337715.2,286047000.1,N
1628337735.0,286047002.7,N
1628337735.9,286047002.7,N
1628337755.8,286046999.9,N
1628337775.6,286047002.1,N
1628337795.4,286047002.3,N
1628337815.3,286047004.0,N
1628337835.1,286047001.8,N
1628337855.8,286047000.1,N
1628337875.7,286047000.0,N
1628337895.5,286047000.4,N
1628337915.3,286046999.0,N
1628337935.2,286046999.3,N
1628337955.0,286046997.2,N
1628337955.9,286046997.2,N
1628337975.8,286046997.6,N
1628337995.6,286046997.4,N
1628338015.4,286046997.8,N
1628338035.3,286046997.5,N
1628338055.1,286046997.5,N
1628338075.9,286046997.6,N
1628338095.7,286046997.9,N
1628338115.5,286046994.9,N
1628338135.4,286046995.3,N
1628338155.2,286046997.8,N
1628338175.0,286046997.4,N
1628338175.9,286046997.4,N
1628338195.8,286046994.9,N
1628338215.6,286046996.8,N
1628338235.5,286046997.1,N
1628338255.3,286046997.1,N
1628338275.1,286046998.0,N
1628338295.9,286046997.9,N
1628338315.7,286046996.2,N
1628338335.5,286046993.8,N
1628338355.4,286046993.6,N
1628338375.2,286046993.6,Y
1628338395.0,286046997.5,P
1628338396.0,286046997.5,P
1628338415.8,286046997.4,P
1628338435.6,286046995.3,Y
1628338455.5,286046998.7,P
1628338475.3,286046998.7,N
1628338495.1,286046999.4,N
1628338515.9,286047000.8,N
1628338535.7,286046999.3,N
1628338555.6,286046998.8,N
1628338575.4,286046999.1,N
1628338595.2,286046999.4,N
1628338615.1,286046999.4,N
1628338616.0,286046999.4,N
1628338635.8,286046999.3,N
1628338655.6,286046997.4,Y
1628338675.5,286046996.6,P
1628338695.3,286046998.1,N
1628338715.2,286046998.3,N
1628338735.9,286046998.4,N
1628338755.7,286046998.7,N
1628338775.6,286046998.5,N
1628338795.4,286046998.2,N
1628338815.2,286047001.1,N
1628338835.1,286046998.7,N
1628338836.0,286046998.7,N
1628338855.8,286046999.4,N
1628338875.7,286046996.5,Y
1628338895.5,286047000.9,P
1628338915.3,286047002.0,N
1628338935.2,286047003.9,N
1628338955.0,286047003.6,N
1628338955.9,286047003.6,N
1628338975.8,286047005.2,N
1628338995.6,286047004.8,N
1628339015.4,286047006.8,Y
1628339035.3,286047005.9,P
1628339055.1,286047005.2,P
1628339075.8,286047005.4,P
1628339095.7,286047006.3,Y
1628339115.5,286047003.9,P
1628339135.4,286047004.3,P
1628339155.2,286047004.4,P
1628339175.0,286047004.1,Y
1628339175.9,286047004.1,P
1628339195.8,286046999.2,P
1628339215.6,286046998.3,N
1628339235.4,286046998.2,N
1628339255.3,286046998.2,N
1628339275.1,286046999.5,N
1628339295.9,286046997.0,N
1628339315.7,286046998.1,N
1628339335.5,286047000.7,N
1628339355.4,286047000.7,N
1628339375.2,286046998.5,N
1628339395.0,286046998.7,N
1628339395.9,286046998.7,N
1628339415.8,286046996.7,N
1628339435.6,286046996.5,N
1628339455.5,286046996.7,N
1628339475.3,286046997.3,N
1628339495.1,286046995.3,N
1628339515.9,286046995.2,N
1628339535.7,286046994.5,N
1628339555.5,286046994.3,N
1628339575.4,286046993.7,N
1628339595.2,286046994.5,N
1628339615.1,286046994.8,N
1628339616.0,286046994.8,N
1628339635.8,286046994.6,N
1628339655.6,286046994.2,N
1628339675.5,286046994.5,N
1628339695.3,286046993.4,N
1628339715.1,286046994.2,N
1628339735.9,286046994.3,N
1628339755.7,286046994.7,N
1628339775.6,286046990.7,Y
1628339795.4,286046992.0,P
1628339815.2,286046992.4,P
1628339835.1,286046991.9,P
1628339836.0,286046991.9,Y
1628339855.8,286046998.6,P
1628339875.7,286046998.1,N
1628339895.5,286047000.5,N
1628339915.3,286047000.3,N
1628339935.2,286047000.9,N
1628339955.0,286047000.9,N
1628339955.9,286047000.9,N
1628339975.7,286047001.2,N
1628339995.6,286046998.9,N
1628340015.4,286046998.7,N
1628340035.3,286046999.6,N
1628340055.1,286046998.4,N
1628340056.0,286046998.4,N
1628340075.8,286046998.5,N
1628340095.7,286046998.7,N
1628340115.5,286046998.7,N
1628340135.3,286046999.1,N
1628340155.2,286046999.5,N
1628340175.0,286046997.7,N
1628340175.9,286046997.7,N
1628340195.8,286046997.6,N
1628340215.6,286046996.7,N
1628340235.4,286046999.2,N
1628340255.3,286046999.1,N
1628340275.1,286046999.0,N
1628340295.9,286046998.9,N
1628340315.7,286046999.2,N
1628340335.5,286046996.6,N
1628340355.4,286046999.1,N
1628340375.2,286047001.2,N
1628340395.0,286046998.6,N
1628340396.0,286046998.6,N
1628340415.8,286046998.9,N
1628340435.6,286046999.3,N
1628340455.5,286046996.5,Y
1628340475.3,286047001.0,P
1628340495.1,286047000.6,N
1628340515.9,286047000.9,N
1628340535.7,286047000.3,N
1628340555.6,286046998.2,N
1628340575.4,286047000.2,N
1628340595.2,286047000.7,N
1628340615.1,286047000.3,N
1628340616.0,286047000.3,N
1628340635.8,286047001.2,N
1628340655.7,286046998.1,N
1628340675.5,286046998.1,N
1628340695.3,286047000.6,N
1628340715.2,286047000.6,N
1628340735.0,286047000.5,N
1628340735.9,286047000.5,N
1628340755.8,286047002.7,N
1628340775.6,286047001.7,N
1628340795.4,286046999.9,N
1628340815.3,286047000.4,N
1628340835.1,286046999.8,N
1628340855.8,286047002.8,N
1628340875.7,286047002.4,N
1628340895.5,286047002.7,N
1628340915.4,286047000.6,N
1628340935.2,286047000.5,N
1628340955.0,286047000.2,N
1628340955.9,286047000.2,N
1628340975.8,286047000.8,N
1628340995.6,286047001.1,N
1628341015.4,286047000.3,N
1628341035.3,286047000.0,N
1628341055.1,286047000.1,N
1628341075.9,286046999.8,N
1628341095.7,286047001.9,N
1628341115.5,286047000.5,N
1628341135.4,286047000.0,N
1628341155.2,286047000.5,N
1628341175.0,286047000.6,N
1628341176.0,286047000.6,N
1628341195.8,286047000.9,N
